BREEZE-M R/B, 40346

Orbit data source: Space-Track

BREEZE-M R/B, 40346 is space debris originally from a launch on Mon, 15 Dec 2014 UTC launched from the Tyuratam Missile And Space Complex (TTMTR). Debris objects in space refer to the collection of defunct objects orbiting the Earth. Examples of debris include non-operational satellites, rocket bodies, and fragments generated from explosions, collisions, or faulty payload assembly.

Loading next visibility...
Identifier
40346, 2014-082B
Orbit
Active
Country
Flag of CISCIS
Related business
Manufacturer
Khrunichev
Mission
Spacecraft
Bus & Motor
BRIZ, Unknown motor
Mass
~1,600 kg wet, 1,600 kg dry
Launch date (UTC)
2014-12-15 (11 years ago)
Launch vehicle
Unknown
Launch site
Tyuratam Missile And Space Complex (TTMTR)
Object type
Payload
Rocket body
Debris
Shape & HBR
Cyl, 2.0 m
Radar Cross Section
15.135 m², Medium (>0.1 m² and < 1m²)

Expand to show TLE details & history
Last TLE update: 22 hours ago

TLE from 22 hours ago
0 BREEZE-M R/B
1 40346U 14082B   25340.23287378 -.00000160  00000-0  00000-0 0  9994
2 40346   8.2660  53.9564 0660444 183.0868 176.3215  1.11336021 44417
Epoch: 2025-12-06T05:35Z
TLE epoch observation values (Epoch: 2025-12-06T05:35:20.294Z)
Latitude
-0°
Longitude
-105.26883°
Altitude
35,545.957 km
Speed
2.98 km/s
True Right ascension
03h 35m 19s
True Declination
0° 00' 00"
Sunlit
Object was in daylight at epoch
Visualization orbit readout
Latitude
Unknown
Longitude
Unknown
Altitude
Unknown
Speed
Unknown
Apparent Right ascension
Unknown
Apparent Declination
Unknown
Sunlit
N/A
Visualization observer readout
Local Sidereal Time
01:23:38
Azimuth
Unknown
Elevation
Unknown
Doppler factor
Unknown
Orbital elements
Apogee altitude
35,542.931 km
Perigee altitude
30,348.678 km
Semi-major axis
39,323.942 km
Eccentricity
0.06604
Inclination
8.266°
RAAN
53.9564°
Arg. of periapsis
183.0868°
True anomaly
176.76999°
Mean anomaly
176.3215°
Eccentric anomaly
176.54926°
Mean motion
0.27833 °/min
Orbital period
1,293.44 mins
BSTAR
0
Loading maneuver chart data...
Computing Atmospheric mass density...
Loading historical data...
Loading historical data...
Loading historical data...
Loading historical data...
Loading historical data...
Loading historical data...
Loading historical data...
Other satellites on launch #82 in the year 2014 (2014-12-15 UTC)

Documentation

Showing up to 5 results
|